This is the latest recevied weather packets stored in our database for station/object N4ZIQ. If no packets are shown the sender has not sent any weather packets the latest 10 day(s).
| Time | Temp. | Humidity | Pressure | Rain* | Wind** | Luminosity | Snow |
|---|---|---|---|---|---|---|---|
| 1777721744 | 19.44° C | 96% | 1010.8 hPa | 0 mm | - | 72 W/m² | - |
| 1777721455 | 18.89° C | 96% | 1010.7 hPa | 0 mm | - | 63 W/m² | - |
| 1777721147 | 18.33° C | 96% | 1010.6 hPa | 0 mm | - | 39 W/m² | - |
| 1777720848 | 18.33° C | 96% | 1010.6 hPa | 0 mm | - | 32 W/m² | - |
| 1777720551 | 17.78° C | 95% | 1010.7 hPa | 0 mm | - | 23 W/m² | - |
| 1777720246 | 17.22° C | 95% | 1010.7 hPa | 0 mm | - | 16 W/m² | - |
| 1777719946 | 17.78° C | 95% | 1010.8 hPa | 0 mm | - | 11 W/m² | - |
| 1777719659 | 17.22° C | 95% | 1010.7 hPa | 0 mm | - | 12 W/m² | - |
| 1777719345 | 17.22° C | 95% | 1010.6 hPa | 0 mm | - | 9 W/m² | - |
| 1777719045 | 16.67° C | 95% | 1010.6 hPa | 0 mm | - | 7 W/m² | - |
| 1777718753 | 17.22° C | 95% | 1010.4 hPa | 0 mm | - | 0 W/m² | - |
| 1777718444 | 16.67° C | 95% | 1010.4 hPa | 0 mm | - | 0 W/m² | - |
| 1777718145 | 16.67° C | 95% | 1010.6 hPa | 0 mm | - | 0 W/m² | - |
| 1777717854 | 16.67° C | 95% | 1010.4 hPa | 0 mm | - | 0 W/m² | - |
| 1777717545 | 16.11° C | 95% | 1010.5 hPa | 0 mm | - | 0 W/m² | - |
| 1777717247 | 16.67° C | 94% | 1010.7 hPa | 0 mm | - | 0 W/m² | - |
| 1777716971 | 16.67° C | 95% | 1010.6 hPa | 0 mm | - | 0 W/m² | - |
| 1777716646 | 16.67° C | 95% | 1010.5 hPa | 0 mm | - | 0 W/m² | - |
| 1777716345 | 16.67° C | 95% | 1010.6 hPa | 0 mm | - | 0 W/m² | - |
| 1777716060 | 16.67° C | 94% | 1010.5 hPa | 0 mm | - | 0 W/m² | - |
| 1777715745 | 16.67° C | 94% | 1010.5 hPa | 0 mm | - | 0 W/m² | - |
| 1777715448 | 16.67° C | 94% | 1010.5 hPa | 0 mm | - | 0 W/m² | - |
| 1777715154 | 16.67° C | 94% | 1010.6 hPa | 0 mm | - | 0 W/m² | - |
| 1777714844 | 16.67° C | 94% | 1010.6 hPa | 0 mm | - | 0 W/m² | - |
| 1777714548 | 16.67° C | 94% | 1010.8 hPa | 0 mm | - | 0 W/m² | - |
* Rain latest hour (hover to see other rain measurements)
** Current wind speed in m/s (hover to see current wind gust speed)